This demonstration page uses our WeatherBlox Daily Observations layout. Learn more.

38.89511, -77.03637

Hourly Observations for October 13, 2018

Temp ( °F °C ) Dew Point ( °F °C ) Humidity (%) Winds ( mph kmh ) Pressure ( in mb ) Visibility ( mi km ) Precip ( " mm )
12:52 am 00:52 Cloudy 56 13.3 41 5 57 57 N 6 9 29.84 1010 10 16.0934 0 0
1:52 am 01:52 Cloudy 56 13.3 42 5.6 60 60 VRB 5 7 29.83 1010 10 16.0934 0 0
2:52 am 02:52 Cloudy 56 13.3 41 5 57 57 ESE 5 7 29.82 1010 10 16.0934 0 0
3:52 am 03:52 Mostly Cloudy 56 13.3 43 6.1 62 62 Calm 29.83 1010 10 16.0934 0 0
4:52 am 04:52 Cloudy 56 13.3 42 5.6 60 60 NW 7 11 29.85 1011 10 16.0934 0 0
5:52 am 05:52 Cloudy with Light Rain 54 12.2 44 6.7 69 69 NNW 8 13 29.88 1012 10 16.0934 0 0.0254
6:52 am 06:52 Cloudy with Light Rain 53 11.7 43 6.1 69 69 NE 3 6 29.88 1012 10 16.0934 0.02 0.508
7:52 am 07:52 Cloudy with Light Rain 53 11.7 45 7.2 74 74 E 6 9 29.89 1012 10 16.0934 0 0.0254
8:52 am 08:52 Cloudy with Light Rain 53 11.7 44 6.7 72 72 NNE 6 9 29.92 1013 10 16.0934 0 0.0254
9:52 am 09:52 Cloudy 55 12.8 44 6.7 67 67 NNW 7 11 29.94 1014 10 16.0934 0 0.0254
10:52 am 10:52 Cloudy 56 13.3 45 7.2 67 67 WNW 9 15 29.96 1015 10 16.0934 0 0.0254
11:52 am 11:52 Mostly Cloudy 58 14.4 43 6.1 58 58 WNW 15 24 29.98 1015 10 16.0934 0 0
12:52 pm 12:52 Mostly Cloudy 60 15.6 40 4.4 47 47 WNW 14 22 29.99 1016 10 16.0934 0 0
1:52 pm 13:52 Mostly Cloudy 60 15.6 39 3.9 46 46 NW 15 24 29.99 1016 10 16.0934 0 0
2:52 pm 14:52 Partly Cloudy 60 15.6 38 3.3 44 44 NW 20 31 29.99 1016 10 16.0934 0 0
3:52 pm 15:52 Partly Cloudy 60 15.6 38 3.3 44 44 NW 16 26 30.01 1016 10 16.0934 0 0
4:52 pm 16:52 Mostly Cloudy 60 15.6 39 3.9 46 46 N 10 17 30.01 1016 10 16.0934 0 0
5:52 pm 17:52 Partly Cloudy 58 14.4 39 3.9 50 50 NNW 10 17 30.04 1017 10 16.0934 0 0
6:52 pm 18:52 Partly Cloudy 55 12.8 38 3.3 53 53 NNW 12 19 30.07 1018 10 16.0934 0 0
7:52 pm 19:52 Mostly Clear 54 12.2 39 3.9 57 57 NNW 9 15 30.09 1019 10 16.0934 0 0
8:52 pm 20:52 Clear 52 11.1 39 3.9 61 61 NNW 8 13 30.11 1020 10 16.0934 0 0
9:52 pm 21:52 Mostly Clear 52 11.1 39 3.9 61 61 NNW 9 15 30.13 1020 10 16.0934 0 0
10:52 pm 22:52 Partly Cloudy 50 10 39 3.9 66 66 NNW 7 11 30.15 1021 10 16.0934 0 0
11:52 pm 23:52 Partly Cloudy 50 10 38 3.3 63 63 NNW 8 13 30.17 1022 10 16.0934 0 0

Powered by AerisWeather